Location: 22
(39.7117°N, 89.5929°W)
Time: 19:34:52
(UTC-05:00)

Vanguard 3 - Pass Details

Date: 08 February 2023
Orbit: 508 x 3249 km, 33.4° (Epoch: 30 March)

Event Time Altitude Azimuth Distance (km) Brightness Sun altitude
Rises 21:55:38 0° 275° (W) 4,846 11.7 -51.1°
Reaches altitude 10° 21:58:29 10° 270° (W) 4,173 11.1 -51.5°
Enters shadow 22:05:08 37° 242° (WSW) 3,143 10.0 -52.6°
Maximum altitude 22:09:55 48° 201° (SSW) 3,123 - -53.4°
Drops below altitude 10° 22:27:12 10° 135° (SE) 6,113 - -56.0°
Sets 22:32:28 0° 130° (SE) 7,207 - -56.8°
